Time,TemperatureF,DewpointF,PressureIn,WindDirection,WindDirectionDegrees,WindSpeedMPH,WindSpeedGustMPH,Humidity,HourlyPrecipIn,Conditions,Clouds,dailyrainin,SoftwareType,DateUTC
2013-03-22 00:02:00,27.0,14.0,-100.00,NE,40,9.0,12.0,57,0.00,,,-99.99,,2013-03-22 05:02:00,
2013-03-22 00:12:00,27.0,14.0,-100.00,NE,40,10.0,14.0,58,0.00,,,-99.99,,2013-03-22 05:12:00,
2013-03-22 00:22:00,27.0,15.0,-100.00,NE,35,9.0,13.0,60,0.00,,,-99.99,,2013-03-22 05:22:00,
2013-03-22 00:32:00,26.0,15.0,-100.00,NE,35,8.0,12.0,61,0.00,,,-99.99,,2013-03-22 05:32:00,
2013-03-22 00:42:00,26.0,15.0,-100.00,NE,55,7.0,12.0,63,0.00,,,-99.99,,2013-03-22 05:42:00,
2013-03-22 00:52:00,26.0,15.0,-100.00,ENE,60,6.0,11.0,63,0.00,,,-99.99,,2013-03-22 05:52:00,
2013-03-22 01:02:00,25.0,15.0,-100.00,ESE,115,0.0,7.0,64,0.00,,,-99.99,,2013-03-22 06:02:00,
2013-03-22 01:12:00,25.0,15.0,-100.00,ENE,65,1.0,2.0,65,0.00,,,-99.99,,2013-03-22 06:12:00,
2013-03-22 01:22:00,25.0,15.0,-100.00,ENE,70,1.0,4.0,67,0.00,,,-99.99,,2013-03-22 06:22:00,
2013-03-22 01:32:00,25.0,16.0,-100.00,East,80,2.0,6.0,67,0.00,,,-99.99,,2013-03-22 06:32:00,
2013-03-22 01:42:00,25.0,16.0,-100.00,ENE,60,2.0,6.0,68,0.00,,,-99.99,,2013-03-22 06:42:00,
2013-03-22 01:52:00,25.0,16.0,-100.00,NE,45,0.0,5.0,68,0.00,,,-99.99,,2013-03-22 06:52:00,
2013-03-22 02:02:00,24.0,16.0,-100.00,NE,45,0.0,4.0,69,0.00,,,-99.99,,2013-03-22 07:02:00,
2013-03-22 02:12:00,24.0,16.0,-100.00,NE,55,2.0,4.0,70,0.00,,,-99.99,,2013-03-22 07:12:00,
2013-03-22 02:22:00,24.0,16.0,-100.00,ENE,70,0.0,4.0,70,0.00,,,-99.99,,2013-03-22 07:22:00,
2013-03-22 02:32:00,24.0,16.0,-100.00,ENE,65,3.0,5.0,71,0.00,,,-99.99,,2013-03-22 07:32:00,
2013-03-22 02:42:00,24.0,17.0,-100.00,NE,55,3.0,7.0,72,0.00,,,-99.99,,2013-03-22 07:42:00,
2013-03-22 02:52:00,24.0,17.0,-100.00,ENE,60,3.0,8.0,73,0.00,,,-99.99,,2013-03-22 07:52:00,
2013-03-22 03:03:00,24.0,17.0,-100.00,East,80,4.0,9.0,73,0.00,,,-99.99,,2013-03-22 08:03:00,
2013-03-22 03:12:00,24.0,17.0,-100.00,NE,50,6.0,9.0,73,0.00,,,-99.99,,2013-03-22 08:12:00,
2013-03-22 03:22:00,24.0,17.0,-100.00,NE,55,6.0,9.0,73,0.00,,,-99.99,,2013-03-22 08:22:00,
2013-03-22 03:32:00,24.0,17.0,-100.00,ENE,65,4.0,9.0,73,0.00,,,-99.99,,2013-03-22 08:32:00,
2013-03-22 03:42:00,24.0,17.0,-100.00,ENE,75,4.0,9.0,73,0.00,,,-99.99,,2013-03-22 08:42:00,
2013-03-22 03:52:00,23.0,16.0,-100.00,ENE,70,2.0,4.0,74,0.00,,,-99.99,,2013-03-22 08:52:00,
2013-03-22 04:02:00,23.0,16.0,-100.00,ENE,70,2.0,4.0,74,0.00,,,-99.99,,2013-03-22 09:02:00,
2013-03-22 04:12:00,23.0,16.0,-100.00,ENE,60,3.0,4.0,74,0.00,,,-99.99,,2013-03-22 09:12:00,
2013-03-22 04:22:00,23.0,17.0,-100.00,ENE,75,4.0,6.0,75,0.00,,,-99.99,,2013-03-22 09:22:00,
2013-03-22 04:32:00,23.0,17.0,-100.00,ENE,65,1.0,6.0,75,0.00,,,-99.99,,2013-03-22 09:32:00,
2013-03-22 04:42:00,23.0,17.0,-100.00,ENE,75,4.0,5.0,76,0.00,,,-99.99,,2013-03-22 09:42:00,
2013-03-22 04:53:00,23.0,17.0,-100.00,NE,55,4.0,6.0,76,0.00,,,-99.99,,2013-03-22 09:53:00,
2013-03-22 05:03:00,23.0,17.0,-100.00,NE,55,4.0,6.0,76,0.00,,,-99.99,,2013-03-22 10:03:00,
2013-03-22 05:12:00,23.0,17.0,-100.00,ENE,75,2.0,6.0,76,0.00,,,-99.99,,2013-03-22 10:12:00,
2013-03-22 05:22:00,22.0,16.0,-100.00,ENE,60,2.0,6.0,76,0.00,,,-99.99,,2013-03-22 10:22:00,
2013-03-22 05:32:00,22.0,16.0,-100.00,NNE,25,1.0,4.0,76,0.00,,,-99.99,,2013-03-22 10:32:00,
2013-03-22 05:42:00,22.0,16.0,-100.00,NE,50,2.0,4.0,76,0.00,,,-99.99,,2013-03-22 10:42:00,
2013-03-22 05:52:00,22.0,17.0,-100.00,NE,55,2.0,4.0,77,0.00,,,-99.99,,2013-03-22 10:52:00,
2013-03-22 06:03:00,22.0,16.0,-100.00,ENE,70,2.0,6.0,77,0.00,,,-99.99,,2013-03-22 11:03:00,
2013-03-22 06:12:00,22.0,16.0,-100.00,NE,45,4.0,7.0,77,0.00,,,-99.99,,2013-03-22 11:12:00,
2013-03-22 06:22:00,22.0,16.0,-100.00,ENE,70,2.0,6.0,77,0.00,,,-99.99,,2013-03-22 11:22:00,
2013-03-22 06:33:00,22.0,16.0,-100.00,SE,125,2.0,6.0,77,0.00,,,-99.99,,2013-03-22 11:33:00,
2013-03-22 06:42:00,22.0,16.0,-100.00,ENE,60,4.0,7.0,78,0.00,,,-99.99,,2013-03-22 11:42:00,
2013-03-22 06:52:00,22.0,16.0,-100.00,NE,45,4.0,7.0,78,0.00,,,-99.99,,2013-03-22 11:52:00,
2013-03-22 07:02:00,22.0,16.0,-100.00,NE,50,3.0,7.0,78,0.00,,,-99.99,,2013-03-22 12:02:00,
2013-03-22 07:12:00,22.0,16.0,-100.00,NE,55,4.0,7.0,78,0.00,,,-99.99,,2013-03-22 12:12:00,
2013-03-22 07:22:00,21.0,16.0,-100.00,East,80,2.0,7.0,79,0.00,,,-99.99,,2013-03-22 12:22:00,
2013-03-22 07:32:00,21.0,16.0,-100.00,East,80,5.0,8.0,79,0.00,,,-99.99,,2013-03-22 12:32:00,
2013-03-22 07:42:00,21.0,16.0,-100.00,East,80,5.0,8.0,79,0.00,,,-99.99,,2013-03-22 12:42:00,
2013-03-22 07:52:00,22.0,17.0,-100.00,ENE,60,6.0,9.0,79,0.00,,,-99.99,,2013-03-22 12:52:00,
2013-03-22 08:02:00,22.0,17.0,-100.00,ENE,60,6.0,9.0,79,0.00,,,-99.99,,2013-03-22 13:02:00,
2013-03-22 08:12:00,22.0,17.0,-100.00,East,80,6.0,9.0,78,0.00,,,-99.99,,2013-03-22 13:12:00,
2013-03-22 08:22:00,24.0,17.0,-100.00,East,90,5.0,7.0,76,0.00,,,-99.99,,2013-03-22 13:22:00,
2013-03-22 08:32:00,24.0,17.0,-100.00,ENE,75,4.0,9.0,75,0.00,,,-99.99,,2013-03-22 13:32:00,
2013-03-22 08:42:00,25.0,17.0,-100.00,East,80,2.0,7.0,73,0.00,,,-99.99,,2013-03-22 13:42:00,
2013-03-22 08:52:00,27.0,18.0,-100.00,East,80,4.0,7.0,69,0.00,,,-99.99,,2013-03-22 13:52:00,
2013-03-22 09:02:00,27.0,18.0,-100.00,East,80,4.0,7.0,69,0.00,,,-99.99,,2013-03-22 14:02:00,
2013-03-22 09:12:00,27.0,18.0,-100.00,East,80,6.0,9.0,68,0.00,,,-99.99,,2013-03-22 14:12:00,
2013-03-22 09:22:00,27.0,18.0,-100.00,East,95,6.0,8.0,67,0.00,,,-99.99,,2013-03-22 14:22:00,
2013-03-22 09:32:00,27.0,18.0,-100.00,ESE,105,6.0,10.0,66,0.00,,,-99.99,,2013-03-22 14:32:00,
2013-03-22 09:42:00,28.0,18.0,-100.00,ESE,105,7.0,9.0,65,0.00,,,-99.99,,2013-03-22 14:42:00,
2013-03-22 09:52:00,30.0,18.0,-100.00,ESE,110,6.0,9.0,62,0.00,,,-99.99,,2013-03-22 14:52:00,
2013-03-22 10:03:00,30.0,18.0,-100.00,ESE,110,6.0,9.0,62,0.00,,,-99.99,,2013-03-22 15:03:00,
2013-03-22 10:12:00,31.0,19.0,-100.00,ESE,115,5.0,8.0,60,0.00,,,-99.99,,2013-03-22 15:12:00,
2013-03-22 10:22:00,31.0,19.0,-100.00,ENE,75,6.0,8.0,61,0.00,,,-99.99,,2013-03-22 15:22:00,
2013-03-22 10:32:00,31.0,19.0,-100.00,East,85,5.0,7.0,59,0.00,,,-99.99,,2013-03-22 15:32:00,
2013-03-22 10:42:00,33.0,19.0,-100.00,ESE,115,6.0,7.0,56,0.00,,,-99.99,,2013-03-22 15:42:00,
2013-03-22 10:52:00,34.0,19.0,-100.00,ESE,110,4.0,7.0,54,0.00,,,-99.99,,2013-03-22 15:52:00,
2013-03-22 11:02:00,34.0,19.0,-100.00,ESE,110,4.0,7.0,54,0.00,,,-99.99,,2013-03-22 16:02:00,
2013-03-22 11:13:00,34.0,19.0,-100.00,ENE,70,6.0,9.0,54,0.00,,,-99.99,,2013-03-22 16:13:00,
2013-03-22 11:22:00,35.0,19.0,-100.00,ESE,115,6.0,8.0,52,0.00,,,-99.99,,2013-03-22 16:22:00,
2013-03-22 11:32:00,35.0,19.0,-100.00,ESE,105,5.0,9.0,52,0.00,,,-99.99,,2013-03-22 16:32:00,
2013-03-22 11:42:00,35.0,18.0,-100.00,NE,55,4.0,9.0,48,0.00,,,-99.99,,2013-03-22 16:42:00,
2013-03-22 11:52:00,37.0,17.0,-100.00,East,100,9.0,11.0,45,0.00,,,-99.99,,2013-03-22 16:52:00,
2013-03-22 12:03:00,37.0,17.0,-100.00,East,100,9.0,11.0,45,0.00,,,-99.99,,2013-03-22 17:03:00,
2013-03-22 12:12:00,37.0,17.0,-100.00,East,90,4.0,11.0,43,0.00,,,-99.99,,2013-03-22 17:12:00,
2013-03-22 12:23:00,38.0,18.0,-100.00,East,90,4.0,9.0,43,0.00,,,-99.99,,2013-03-22 17:23:00,
2013-03-22 12:32:00,38.0,18.0,-100.00,ESE,110,7.0,11.0,43,0.00,,,-99.99,,2013-03-22 17:32:00,
2013-03-22 12:42:00,39.0,18.0,-100.00,East,95,4.0,6.0,41,0.00,,,-99.99,,2013-03-22 17:42:00,
2013-03-22 12:52:00,40.0,19.0,-100.00,SSE,165,6.0,16.0,42,0.00,,,-99.99,,2013-03-22 17:52:00,
2013-03-22 13:02:00,40.0,19.0,-100.00,SSE,165,6.0,16.0,42,0.00,,,-99.99,,2013-03-22 18:02:00,
2013-03-22 13:12:00,39.0,18.0,-100.00,ENE,60,3.0,11.0,41,0.00,,,-99.99,,2013-03-22 18:12:00,
2013-03-22 13:22:00,41.0,18.0,-100.00,NNW,345,2.0,7.0,40,0.00,,,-99.99,,2013-03-22 18:22:00,
2013-03-22 13:33:00,40.0,18.0,-100.00,ENE,75,6.0,11.0,41,0.00,,,-99.99,,2013-03-22 18:33:00,
2013-03-22 13:42:00,40.0,19.0,-100.00,East,100,5.0,9.0,41,0.00,,,-99.99,,2013-03-22 18:42:00,
2013-03-22 13:52:00,42.0,19.0,-100.00,East,95,4.0,7.0,39,0.00,,,-99.99,,2013-03-22 18:52:00,
2013-03-22 14:02:00,43.0,19.0,-100.00,SSE,155,4.0,8.0,38,0.00,,,-99.99,,2013-03-22 19:02:00,
2013-03-22 14:12:00,42.0,18.0,-100.00,East,100,3.0,7.0,38,0.00,,,-99.99,,2013-03-22 19:12:00,
2013-03-22 14:22:00,42.0,18.0,-100.00,SE,130,1.0,6.0,37,0.00,,,-99.99,,2013-03-22 19:22:00,
2013-03-22 14:32:00,41.0,17.0,-100.00,NE,45,2.0,6.0,37,0.00,,,-99.99,,2013-03-22 19:32:00,
2013-03-22 14:42:00,41.0,18.0,-100.00,South,170,4.0,7.0,38,0.00,,,-99.99,,2013-03-22 19:42:00,
2013-03-22 14:52:00,42.0,18.0,-100.00,North,355,1.0,6.0,37,0.00,,,-99.99,,2013-03-22 19:52:00,
2013-03-22 15:02:00,42.0,18.0,-100.00,East,80,4.0,5.0,37,0.00,,,-99.99,,2013-03-22 20:02:00,
2013-03-22 15:12:00,42.0,18.0,-100.00,ENE,75,2.0,6.0,36,0.00,,,-99.99,,2013-03-22 20:12:00,
2013-03-22 15:22:00,43.0,18.0,-100.00,South,170,1.0,6.0,36,0.00,,,-99.99,,2013-03-22 20:22:00,
2013-03-22 15:32:00,41.0,17.0,-100.00,East,80,2.0,6.0,36,0.00,,,-99.99,,2013-03-22 20:32:00,
2013-03-22 15:42:00,42.0,18.0,-100.00,SSW,195,0.0,2.0,37,0.00,,,-99.99,,2013-03-22 20:42:00,
2013-03-22 15:52:00,43.0,18.0,-100.00,WNW,290,2.0,3.0,36,0.00,,,-99.99,,2013-03-22 20:52:00,
2013-03-22 16:03:00,42.0,17.0,-100.00,SW,230,2.0,7.0,37,0.00,,,-99.99,,2013-03-22 21:03:00,
2013-03-22 16:12:00,40.0,18.0,-100.00,SW,230,9.0,14.0,39,0.00,,,-99.99,,2013-03-22 21:12:00,
2013-03-22 16:22:00,39.0,17.0,-100.00,SSW,210,8.0,13.0,40,0.00,,,-99.99,,2013-03-22 21:22:00,
2013-03-22 16:32:00,40.0,18.0,-100.00,SW,220,7.0,11.0,40,0.00,,,-99.99,,2013-03-22 21:32:00,
2013-03-22 16:43:00,40.0,18.0,-100.00,SW,225,5.0,11.0,40,0.00,,,-99.99,,2013-03-22 21:43:00,
2013-03-22 17:03:00,41.0,18.0,-100.00,South,185,3.0,7.0,39,0.00,,,-99.99,,2013-03-22 22:03:00,
2013-03-22 17:12:00,41.0,19.0,-100.00,SSW,195,3.0,6.0,39,0.00,,,-99.99,,2013-03-22 22:12:00,
2013-03-22 17:23:00,41.0,18.0,-100.00,SSE,160,3.0,5.0,39,0.00,,,-99.99,,2013-03-22 22:23:00,
2013-03-22 17:32:00,41.0,18.0,-100.00,South,170,2.0,6.0,39,0.00,,,-99.99,,2013-03-22 22:32:00,
2013-03-22 17:42:00,40.0,18.0,-100.00,South,185,2.0,4.0,39,0.00,,,-99.99,,2013-03-22 22:42:00,
2013-03-22 17:52:00,40.0,18.0,-100.00,SSW,195,2.0,4.0,39,0.00,,,-99.99,,2013-03-22 22:52:00,
2013-03-22 18:02:00,40.0,18.0,-100.00,SSW,195,2.0,4.0,39,0.00,,,-99.99,,2013-03-22 23:02:00,
2013-03-22 18:12:00,40.0,18.0,-100.00,SSE,155,2.0,4.0,40,0.00,,,-99.99,,2013-03-22 23:12:00,
2013-03-22 18:22:00,40.0,18.0,-100.00,SW,235,1.0,2.0,40,0.00,,,-99.99,,2013-03-22 23:22:00,
2013-03-22 18:32:00,40.0,17.0,-100.00,SW,215,1.0,2.0,39,0.00,,,-99.99,,2013-03-22 23:32:00,
2013-03-22 18:42:00,40.0,18.0,-100.00,SW,215,2.0,4.0,40,0.00,,,-99.99,,2013-03-22 23:42:00,
2013-03-22 18:52:00,40.0,17.0,-100.00,SSW,200,4.0,5.0,40,0.00,,,-99.99,,2013-03-22 23:52:00,
2013-03-22 19:02:00,39.0,17.0,-100.00,SW,215,4.0,6.0,40,0.00,,,-99.99,,2013-03-23 00:02:00,
2013-03-22 19:12:00,39.0,17.0,-100.00,SSW,210,4.0,6.0,40,0.00,,,-99.99,,2013-03-23 00:12:00,
2013-03-22 19:23:00,39.0,17.0,-100.00,SW,225,4.0,6.0,41,0.00,,,-99.99,,2013-03-23 00:23:00,
2013-03-22 19:32:00,39.0,18.0,-100.00,SW,230,4.0,6.0,41,0.00,,,-99.99,,2013-03-23 00:32:00,
2013-03-22 19:42:00,39.0,18.0,-100.00,NW,305,2.0,6.0,41,0.00,,,-99.99,,2013-03-23 00:42:00,
2013-03-22 19:52:00,39.0,18.0,-100.00,WSW,245,3.0,4.0,43,0.00,,,-99.99,,2013-03-23 00:52:00,
2013-03-22 20:03:00,39.0,18.0,-100.00,WSW,245,3.0,4.0,43,0.00,,,-99.99,,2013-03-23 01:03:00,
2013-03-22 20:12:00,38.0,18.0,-100.00,SSW,200,6.0,8.0,44,0.00,,,-99.99,,2013-03-23 01:12:00,
2013-03-22 20:22:00,38.0,19.0,-100.00,SSE,155,3.0,7.0,46,0.00,,,-99.99,,2013-03-23 01:22:00,
2013-03-22 20:32:00,37.0,19.0,-100.00,SSE,165,2.0,4.0,46,0.00,,,-99.99,,2013-03-23 01:32:00,
2013-03-22 20:42:00,37.0,19.0,-100.00,SSW,205,4.0,6.0,47,0.00,,,-99.99,,2013-03-23 01:42:00,
2013-03-22 20:52:00,37.0,20.0,-100.00,SSW,210,4.0,6.0,48,0.00,,,-99.99,,2013-03-23 01:52:00,
2013-03-22 21:02:00,37.0,20.0,-100.00,WSW,240,3.0,6.0,49,0.00,,,-99.99,,2013-03-23 02:02:00,
2013-03-22 21:12:00,37.0,20.0,-100.00,SW,220,2.0,4.0,49,0.00,,,-99.99,,2013-03-23 02:12:00,
2013-03-22 21:22:00,37.0,20.0,-100.00,West,275,3.0,4.0,50,0.00,,,-99.99,,2013-03-23 02:22:00,
2013-03-22 21:32:00,37.0,21.0,-100.00,WNW,290,3.0,4.0,51,0.00,,,-99.99,,2013-03-23 02:32:00,
2013-03-22 21:42:00,37.0,21.0,-100.00,West,280,1.0,3.0,52,0.00,,,-99.99,,2013-03-23 02:42:00,
2013-03-22 21:52:00,37.0,21.0,-100.00,WSW,255,2.0,3.0,52,0.00,,,-99.99,,2013-03-23 02:52:00,
2013-03-22 22:02:00,37.0,21.0,-100.00,SW,235,1.0,3.0,52,0.00,,,-99.99,,2013-03-23 03:02:00,
2013-03-22 22:12:00,36.0,22.0,-100.00,NW,320,1.0,2.0,53,0.00,,,-99.99,,2013-03-23 03:12:00,
2013-03-22 22:22:00,36.0,22.0,-100.00,NW,305,4.0,4.0,56,0.00,,,-99.99,,2013-03-23 03:22:00,
2013-03-22 22:33:00,36.0,22.0,-100.00,WNW,300,3.0,5.0,57,0.00,,,-99.99,,2013-03-23 03:33:00,
2013-03-22 22:43:00,35.0,22.0,-100.00,West,270,1.0,4.0,58,0.00,,,-99.99,,2013-03-23 03:43:00,
2013-03-22 22:53:00,35.0,22.0,-100.00,NW,305,2.0,3.0,58,0.00,,,-99.99,,2013-03-23 03:53:00,
2013-03-22 23:02:00,36.0,23.0,-100.00,NNW,335,6.0,9.0,58,0.00,,,-99.99,,2013-03-23 04:02:00,
2013-03-22 23:12:00,35.0,23.0,-100.00,NW,305,5.0,6.0,58,0.00,,,-99.99,,2013-03-23 04:12:00,
2013-03-22 23:23:00,35.0,23.0,-100.00,WNW,300,5.0,6.0,59,0.00,,,-99.99,,2013-03-23 04:23:00,
2013-03-22 23:32:00,35.0,23.0,-100.00,NNW,330,5.0,9.0,59,0.00,,,-99.99,,2013-03-23 04:32:00,
2013-03-22 23:43:00,36.0,23.0,-100.00,NNW,345,7.0,9.0,59,0.00,,,-99.99,,2013-03-23 04:43:00,
2013-03-22 23:53:00,36.0,23.0,-100.00,NNW,335,5.0,9.0,59,0.00,,,-99.99,,2013-03-23 04:53:00,